Powrót do katalogu

STARLINK-35560

AktywnyŁącznośćVLEO
NORAD 66059·PAYLOAD·🇺🇸 United States

Wystrzelony Oct 19, 2025 z Cape Canaveral Space Force Station

Loading…

Następne Przeloty (najbliższe 24 godziny)

TLE

ŚwieżeSource: CelesTrak SupGP

Epoka: Sep 14, 2026, 22:35 UTC

1 66059C 25235B   26257.94145833  .00024672  00000+0  72915-3 0  2576
2 66059  53.1570  83.7820 0001289  85.4233 183.6989 15.34369264    10

Śledź STARLINK-35560 w czasie rzeczywistym z AllMySat

Download on the App Store